Regional Weather Roundup
Issued by NWS

Home | Current Version | Previous Version | Text Only | Print | Product List | Glossary Off
Versions: 1 2 3 4 5 6 7 8 9 10 11 12 13 14 15 16 17 18 19 20 21 22 23 24 25 26 27 28 29 30 31 32 33 34 35 36 37 38 39 40 41 42 43 44 45 46 47 48 49 50

000
ASUS45 KTFX 301810
RWRMT
MONTANA REGIONAL WEATHER ROUNDUP
NATIONAL WEATHER SERVICE GREAT FALLS MT
1200 PM MDT TUE JUN 30 2015

NOTE: "FAIR" INDICATES FEW OR NO CLOUDS BELOW 12000 FEET WITH NO
SIGNIFICANT WEATHER AND/OR OBSTRUCTIONS TO VISIBILITY.

MTZ001>007-043-301900-
WEST OF THE DIVIDE

CITY           SKY/WX    TMP DP  RH WIND       PRES   REMARKS
KALISPELL      CLEAR     83  51  33 VRB3      30.02F
MISSOULA       SUNNY     85  58  39 CALM      30.05F
BUTTE          SUNNY     79  43  27 NW5       30.19F
MULLAN PASS    SUNNY     71  51  49 VRB7      30.25R
EUREKA           N/A     70  61  73 CALM      30.07F
HAMILTON         N/A     86  54  32 SE7       30.06F
PLAINS           N/A     87  54  32 W8        30.01F
RONAN            N/A     84  58  41 N6        30.08S
THOMPSON FALLS   N/A     86  54  33 NW10      30.05F
$$

MTZ008-052>055-301900-
SOUTHWEST MONTANA

CITY           SKY/WX    TMP DP  RH WIND       PRES   REMARKS
BOZEMAN        SUNNY     83  54  36 VRB5      30.11F
DILLON         SUNNY     81  52  36 CALM      30.16F
W YELLOWSTONE  MOSUNNY   79  48  34 W6G17     30.26S
THREE FORKS      N/A     84  76  77 SE5       30.08  HX  92
$$

MTZ009-010-012-014-046-048-049-054-301900-
EAST SLOPES AND CENTRAL MONTANA

CITY           SKY/WX    TMP DP  RH WIND       PRES   REMARKS
CUT BANK       SUNNY     84  44  24 NW21G29   30.00S
GREAT FALLS    SUNNY     88  45  22 W18G29    29.98F
HELENA         SUNNY     88  51  28 W15G24    30.05F
CONRAD           N/A     85  53  33 W18       30.02S
$$

MTZ011-013-016-021-045-047-050-051-301900-
NORTH CENTRAL MONTANA

CITY           SKY/WX    TMP DP  RH WIND       PRES   REMARKS
HAVRE          SUNNY     89  47  23 W17G26    29.87S
CHINOOK          N/A     88  52  29 W17G24    29.86F
FORT BENTON      N/A     90  39  17 W22G32    29.93R
$$

MTZ017>020-022>027-061-062-301900-
NORTHEAST MONTANA

CITY           SKY/WX    TMP DP  RH WIND       PRES   REMARKS
JORDAN           N/A     89  58  34 NW18      29.87S
SIDNEY         MOSUNNY   84  63  48 E10G18    29.88F
WOLF POINT     LGT RAIN  87  61  41 E13G20    29.85F
MALTA            N/A     88  50  27 W6        29.82F
PLENTYWOOD       N/A     72  57  60 E15       29.92F
POPLAR           N/A     81  59  47 E16       29.86
SCOBEY           N/A     72  52  49 NE14      29.92S
$$

MTZ028>42-056>058-301900-
SOUTHCENTRAL AND SOUTHEAST MONTANA

CITY           SKY/WX    TMP DP  RH WIND       PRES   REMARKS
BAKER          PTSUNNY   76  65  68 MISG      29.92S
BILLINGS       MOSUNNY   90  54  29 NW12G17   29.99F
LIVINGSTON     MOSUNNY   86  56  35 W17       30.09S
MILES CITY     CLOUDY    87  61  41 SW8       29.88S
EKALAKA          N/A     81  58  45 NW7       29.93S
FORSYTH          N/A     86  55  35 W12       29.90S
LAUREL           N/A     90  50  25 W15       29.98F
ROUNDUP          N/A     91  49  23 W3        29.88F
$$

REGIONAL REPORTS...DAKOTAS

CITY           SKY/WX    TMP DP  RH WIND       PRES   REMARKS
WILLISTON      CLOUDY    79  53  40 E14       29.91S
MINOT          CLOUDY    69  63  81 CALM      29.91F
DICKINSON      CLOUDY    71  65  81 E9        29.92F
BEACH          FAIR      75  66  73 SE20G26   29.91S
CROSBY         TSTM      63  63 100 NE8       29.95S
BISMARCK       CLOUDY    70  65  84 S7        29.93F
GRAND FORKS    CLOUDY    73  57  57 SE3       29.94F
FARGO          PTSUNNY   74  57  55 E5        29.94S
BUFFALO SD       N/A     78  65  63 E8        29.86S
RAPID CITY     CLOUDY    79  64  60 S5        29.92F
$$

REGIONAL REPORTS...WYOMING/IDAHO/WASHINGTON

CITY           SKY/WX    TMP DP  RH WIND       PRES   REMARKS
GILLETTE       MOSUNNY   84  56  38 NW15      30.03S
SHERIDAN       CLOUDY    81  57  43 CALM      30.03F
BUFFALO WY     CLOUDY    74  56  53 N3        30.10F
CODY           MOSUNNY   82  54  36 N3        30.10F
YELLOWSTONE LA   N/A     70  53  54 E8        30.37F
IDAHO FALLS    PTSUNNY   80  62  54 W3        30.15S
SALMON         SUNNY     79  59  50 CALM      30.09F
BOISE          SUNNY     90  57  32 VRB7      30.01F
SPOKANE        MOSUNNY   85  51  31 N5        30.05S
$$

REGIONAL REPORTS...ALBERTA

CITY           SKY/WX    TMP DP  RH WIND       PRES   REMARKS
EDMONTON       CLOUDY    63  55  77 SE7       30.01S
CALGARY        PTSUNNY   68  57  68 N16G25    30.04R
LETHBRIDGE     MOSUNNY   79  54  41 NW20      29.98R
MEDICINE HAT   SUNNY     77  54  44 W17G26    29.89R SMOKE
WATERTON GATE    N/A     79  48  34 W12G17      N/A
CARDSTON         N/A     77  55  47 NW12G17     N/A
MILK RIVER       N/A     81  52  36 NW17G23     N/A
ONEFOUR          N/A     81  55  41 NW29G36     N/A
$$

REGIONAL REPORTS...SASKATCHEWAN

CITY           SKY/WX    TMP DP  RH WIND       PRES   REMARKS
SWIFT CURRENT  SUNNY     73  55  53 SE20G26   29.91R HAZE
REGINA         LGT RAIN  63  59  88 CALM      29.95S VSB 3/4
SASKATOON        N/A     68  52  56 W9        29.97S SMOKE
CYPRESS HILLS    N/A     73  54  49 NW9G17      N/A
VAL MARIE        N/A     82  50  32 SE8         N/A
ROCKGLEN         N/A     75  55  50 E15G21      N/A
ASSINIBOIA       N/A     64  61  88 NW1         N/A
$$


USA.gov is the U.S. government's official web portal to all federal, state and local government web resources and services.